Find Starlink 4374

NORAD ID: 53652 Int'l Des: 2022-105 Owner: SPXS Country: US Constellation: starlink operational
LEOCIRCULARRETROGRADESSO

現在のビュー

3D地球を読み込み中...

About Starlink 4374

Starlink 4374 (NORAD 53652) is a starlink constellation satellite (v1.5) launched Aug 31, 2022 by SPXS of US. It operates in LEO, CIRCULAR, RETROGRADE, SSO orbit with a mass of 300.00 kg.

Starlink 4374について

説明を読み込み中...

次回通過

Passes for default location (London). Set your location on the main map for personalized predictions.

高度履歴

Loading altitude history...

軌道要素

1 53652U 22105E 26171.36010205 .00005324 00000-0 37280-3 0 9992
2 53652 97.3399 50.2058 0001849 50.9056 309.2335 15.05635829208672
Epoch: Jun 20, 2026 • Age: 19 hours

現在のステータス

高度 551.3 km
速度 7.59 km/s
衛星直下点 23.13°N, 80.19°E
打ち上げ日 Aug 31, 2022
運用期間 3.8 years
タイプ internet

技術仕様

分類 Payload
質量 300.00 kg
乾燥質量 290.00 kg
総質量 300.00 kg
長さ 0.20 m
直径 2.80 m
スパン 9.00 m
形状 Box + pan
製造者 SPXS
バスタイプ Starlink
フェーズステータス In Orbit
所有者/国 SPXS/US

Most Searched